Location: Eaton Estates
(41.3089°N, 82.0057°W)
Time: 19:06:33
(UTC+00:00)

Cosmos 2123 Rocket - Pass Details

Date: 24 October 2021
Orbit: 961 x 992 km, 82.9° (Epoch: 03 December)

Event Time Altitude Azimuth Distance (km) Brightness Sun altitude
Rises 23:08:23 0° 356° (N) 3,715 7.0 -7.2°
Reaches altitude 10° 23:10:59 10° 1° (N) 2,760 6.3 -7.7°
Maximum altitude 23:17:12 56° 79° (E) 1,160 4.1 -8.9°
Drops below altitude 10° 23:23:20 10° 157° (SSE) 2,726 6.2 -10.0°
Sets 23:25:53 0° 162° (SSE) 3,665 6.9 -10.5°
